Hourly Data Report for July 16, 2021

MANIWAKI AIRPORT
QUEBEC
Current Station Operator: ECCC - MSC

46°16'29.000" N
75°59'31.000" W
199.70 m
7034482
71721
WMJ

Download Data

Hourly Data (July 2021)
Hourly Data Report for July 16, 2021
TIME
LST
Temp Definition
°C
Dew Point Definition
°C
Rel Hum Definition
%
Precip. Amount Definition
mm

Wind Dir Definition
10's deg

Wind Spd Definition
km/h
Visibility Definition
km
Stn Press Definition
kPa
Hmdx Definition


Wind Chill Definition


Weather Definition


00:00 18.3 17.4 95 0.7 29 11   98.54     LegendNANA
01:00 18.1 17.0 94 0.0 31 9   98.59     LegendNANA
02:00 17.1 15.6 91 0.0 32 14   98.70     LegendNANA
03:00 16.5 15.7 95 0.0 32 9   98.78     LegendNANA
04:00 16.2 14.3 88 0.0 34 11   98.89     LegendNANA
05:00 15.8 13.7 87 0.0 33 13   98.99     LegendNANA
06:00 16.0 13.6 86 0.0 35 10   99.07     LegendNANA
07:00 16.7 13.3 81 0.0 34 8   99.16     LegendNANA
08:00 17.5 12.9 75 0.0 2 11   99.24     LegendNANA
09:00 18.1 13.0 72 0.0 32 9   99.30     LegendNANA
10:00 19.8 11.8 60 0.0 2 10   99.35     LegendNANA
11:00 21.2 12.1 56 0.0 33 13   99.38     LegendNANA
12:00 22.4 12.3 53 0.0 35 7   99.37 25   LegendNANA
13:00 23.7 12.6 50 0.0 34 9   99.37 26   LegendNANA
14:00 24.3 12.1 46 0.0 34 4   99.37 27   LegendNANA
15:00 24.6 12.4 46 0.0 34 6   99.35 27   LegendNANA
16:00 24.6 12.5 47 0.0 1 6   99.32 27   LegendNANA
17:00 24.5 12.8 48 0.0 25 3   99.28 27   LegendNANA
18:00 23.0 15.8 64 0.0 19 6   99.30 27   LegendNANA
19:00 20.9 17.1 79 0.0 21 3   99.33 26   LegendNANA
20:00 18.7 16.5 87 0.0 20 3   99.35     LegendNANA
21:00 16.9 15.7 93 0.0   0   99.41     LegendNANA
22:00 16.1 15.5 96 0.0 20 2   99.45     LegendNANA
23:00 15.4 14.6 95 0.0 22 2   99.47     LegendNANA

Notes on Data Quality.

Legend

  • E = Estimated
  • M = Missing
  • NA = Not Available*
  • [empty] = Indicates an unobserved value
Date modified: